Weather History for Trinidad, CO

Change the Weather History Date:

Friday, November 29, 2013

  Actual Average Record
Temperature  
Mean Temperature 45 °F 35 °F  
Max Temperature 60 °F 49 °F 78 °F (1973)
Min Temperature 30 °F 20 °F -2 °F (1952)
Degree Days  
Heating Degree Days 20 30  
Month to date heating degree days 686 701  
Since 1 July heating degree days 1147 1202  
Cooling Degree Days 0 0  
Month to date cooling degree days 0 0  
Year to date cooling degree days 1068 719  
Moisture  
Dew Point 21 °F    
Average Humidity 46    
Maximum Humidity 75    
Minimum Humidity 17    
Precipitation  
Precipitation 0.00 in 0.02 in 0.16 in (2006)
Month to date precipitation 0.16 0.68  
Year to date precipitation 9.80 13.28  
Sea Level Pressure  
Sea Level Pressure 30.14 in    
Wind  
Wind Speed 10 mph (West)    
Max Wind Speed 18 mph    
Max Gust Speed 22 mph    
Visibility 10 miles    
Events      
T = Trace of Precipitation, MM = Missing Value Source: NWS Daily Summary

Daily Weather History Graph

Daily Weather History Graph

Search for Another Location

Airport:

Trip Planner

Search our weather history database for the weather conditions in past years. The results will help you decide how hot, cold, wet, or windy it might be!

Date:

Astronomy

Nov. 29, 2013 Rise Set
Actual Time 6:50 AM MST 4:40 PM MST
Civil Twilight 6:22 AM MST 5:08 PM MST
Nautical Twilight 5:50 AM MST 5:41 PM MST
Astronomical Twilight 5:18 AM MST 6:12 PM MST
Moon 3:03 AM MST (11/29) 2:22 PM MST (11/29)
Length of Visible Light 10h 46m
Length of Day
9h 49m
Waning Crescent, 13% of the Moon is Illuminated
Nov 29
Waning Crescent
Dec 2
New
Dec 9
First Quarter
Dec 17
Full
Dec 25
Last Quarter

Hourly Weather History & Observations

Time (MST) Temp. Windchill Dew Point Humidity Pressure Visibility Wind Dir Wind Speed Gust Speed Precip Events Conditions
12:54 AM 35.1 °F 25.5 °F 25.0 °F 67% 30.15 in 10.0 mi WSW 15.0 mph - N/A   Clear
1:54 AM 35.1 °F 26.9 °F 25.0 °F 67% 30.13 in 10.0 mi West 11.5 mph - N/A   Clear
2:54 AM 34.0 °F 24.2 °F 24.1 °F 67% 30.13 in 10.0 mi West 15.0 mph - N/A   Clear
3:54 AM 30.9 °F 21.2 °F 21.9 °F 69% 30.14 in 10.0 mi WSW 12.7 mph - N/A   Clear
4:54 AM 32.0 °F 21.2 °F 21.0 °F 64% 30.13 in 10.0 mi WSW 16.1 mph - N/A   Clear
5:54 AM 30.9 °F 21.2 °F 19.0 °F 61% 30.17 in 10.0 mi West 12.7 mph - N/A   Clear
6:54 AM 33.1 °F 23.0 °F 18.0 °F 54% 30.18 in 10.0 mi WSW 15.0 mph - N/A   Clear
7:54 AM 32.0 °F 22.1 °F 18.0 °F 56% 30.21 in 10.0 mi West 13.8 mph - N/A   Clear
8:54 AM 39.9 °F 35.1 °F 21.0 °F 47% 30.19 in 10.0 mi NW 6.9 mph - N/A   Clear
9:54 AM 45.0 °F 39.7 °F 21.9 °F 40% 30.18 in 10.0 mi NNW 10.4 mph - N/A   Clear
10:54 AM 53.1 °F - 21.0 °F 29% 30.13 in 10.0 mi NNW 8.1 mph - N/A   Clear
11:54 AM 55.9 °F - 18.0 °F 23% 30.09 in 10.0 mi NNW 6.9 mph - N/A   Clear
12:54 PM 57.9 °F - 18.0 °F 21% 30.06 in 10.0 mi Variable 3.5 mph - N/A   Clear
1:54 PM 60.1 °F - 16.0 °F 18% 30.05 in 10.0 mi North 5.8 mph - N/A   Clear
2:54 PM 57.9 °F - 16.0 °F 19% 30.06 in 10.0 mi Calm Calm - N/A   Clear
3:54 PM 55.9 °F - 19.9 °F 25% 30.08 in 10.0 mi Calm Calm - N/A   Clear
4:54 PM 45.0 °F 41.2 °F 27.0 °F 49% 30.13 in 10.0 mi SSE 6.9 mph - N/A   Clear
5:54 PM 45.0 °F 41.2 °F 24.1 °F 44% 30.15 in 10.0 mi South 6.9 mph - N/A   Clear
6:54 PM 36.0 °F 28.0 °F 26.1 °F 67% 30.19 in 10.0 mi WSW 11.5 mph - N/A   Clear
7:54 PM 37.0 °F 28.9 °F 24.1 °F 59% 30.20 in 10.0 mi West 12.7 mph - N/A   Clear
8:54 PM 35.1 °F 26.4 °F 21.9 °F 59% 30.18 in 10.0 mi West 12.7 mph - N/A   Clear
9:54 PM 35.1 °F 25.9 °F 19.9 °F 54% 30.18 in 10.0 mi West 13.8 mph - N/A   Clear
10:54 PM 32.0 °F 23.0 °F 19.9 °F 61% 30.15 in 10.0 mi WNW 11.5 mph - N/A   Clear
11:54 PM 30.9 °F 20.2 °F 19.0 °F 61% 30.15 in 10.0 mi West 15.0 mph - N/A   Clear